If you wish to contribute or participate in the discussions about articles you are invited to join SKYbrary as a registered user

 Actions

Laval-Entrammes Airport

From SKYbrary Wiki

LFOV
Airport
ICAO: LFOV – IATA: LVA
Summary
Name Laval-Entrammes Airport
Region Europe
Territory France FR.gif
Location , Pays de la Loire
Serving Laval
Elevation 100.584 m
330 ft
330 ft100.584 m
Type medium airport
Coordinates 48° 1' 52.90" N, 0° 44' 34.75" W
Runways
Designator Length Width Surface ROPS
15/33 1530 m5,019.685 ft
30 m98.425 ft
ASP /


METAR
Observation LFOV 222100Z AUTO 04007KT CAVOK 02/M04 Q1031
Station Laval-Entrammes
Date/Time 22 January 2020 21:00:00
Wind direction 40°
Wind speed 07 kts
Lowest cloud amount clouds and visibility OK
Temperature 2°C
Dew point
Humidity 64%
QNH 1031 hPa
Weather condition n/a